Simultaneous Nadir Overpasses (SNOs) Predictions

Prediction of SNOs between AQUA and METOP-C Satellite Orbit:

Table of predicted SNOs for the next 14.0 days since TLE Epoch: 5/9/2020
Index Date (AQUA) Time (AQUA) Lat,Lon (AQUA) SZA (AQUA ) Date (METOP-C) Time (METOP-C) Lat,Lon (METOP-C) SZA (METOP-C ) Distance(km) Time Diff (sec)
1 05/09/2020 17:09:51 -73.76, 96.96 123.89 05/09/2020 17:09:31 -73.75, 97.00 123.89 1.54 20
2 05/09/2020 17:59:20 73.82, -95.54 56.18 05/09/2020 18:00:09 73.84, -95.47 56.18 2.72 49
3 05/12/2020 11:54:30 73.32, -3.31 54.95 05/12/2020 11:53:21 73.25, -5.07 54.93 57.11 69
4 05/12/2020 12:44:04 -73.77, 163.38 124.59 05/12/2020 12:43:53 -73.75, 163.41 124.61 2.56 11
5 05/12/2020 13:33:33 73.84, -29.14 55.48 05/12/2020 13:34:31 73.83, -29.08 55.46 2.75 58
6 05/15/2020 07:28:50 73.66, 62.41 54.63 05/15/2020 07:27:37 73.59, 62.10 54.57 13.22 73
7 05/15/2020 08:18:17 -73.74,-130.11 125.30 05/15/2020 08:18:16 -73.75,-130.20 125.29 2.96 1
8 05/15/2020 09:07:46 73.82, 37.36 54.78 05/15/2020 09:08:54 73.82, 37.30 54.77 1.92 68
9 05/18/2020 03:03:04 73.70, 128.79 54.03 05/18/2020 03:01:57 73.72, 128.82 54.07 2.94 67
10 05/18/2020 03:52:31 -73.77, -63.72 125.91 05/18/2020 03:52:38 -73.79, -63.69 125.88 3.27 7
11 05/18/2020 04:42:02 73.96, 103.49 54.29 05/18/2020 04:43:14 73.95, 104.03 54.26 16.43 72
12 05/20/2020 22:37:17 73.69,-164.74 53.43 05/20/2020 22:36:20 73.71,-164.81 53.46 3.21 57
13 05/20/2020 23:26:45 -73.80, 2.66 126.46 05/20/2020 23:27:01 -73.79, 2.70 126.48 1.77 16




NCC Satellite Simultaneous Nadir Overpasses (SNOs) Prediction Service
